Weather Service Report


596 
ASUS44 KJAN 252110
RWRMS 

MISSISSIPPI HOURLY WEATHER ROUNDUP
NATIONAL WEATHER SERVICE JACKSON MS
400 PM CDT SAT MAR 25 2017

NOTE: "FAIR: INDICATES FEW OR NO CLOUDS BELOW 12,000 FEET WITH NO
SIGNIFICANT WEATHER AND/OR OBSTRUCTIONS TO VISIBILITY.

MSZ001>002-007>008-010>013-018>021-025>028-034>036-252200-
NORTHWEST MISSISSIPPI
  
CITY           SKY/WX    TMP DP  RH WIND       PRES   REMARKS
BATESVILLE     CLOUDY    64  58  81 SE7       29.93F                  
CLARKSDALE     PTSUNNY   68  63  83 S14G20    29.89F                  
CLEVELAND      FAIR      70  61  73 S13G20    29.89F                  
GREENWOOD      CLOUDY    67  63  87 S9        29.92F                  
GREENVILLE     CLOUDY    71  57  61 SW12      29.88F                  
OLIVE BRANCH   CLOUDY   N/A N/A N/A S13       29.90                   
OXFORD         LGT RAIN  59  57  94 S7        29.95F                  
TUNICA         CLOUDY    68  59  73 S17G24    29.89F                  
$$

MSZ003>006-009-014>017-022>024-029>033-037>039-252200-
NORTHEAST MISSISSIPPI
  
CITY           SKY/WX    TMP DP  RH WIND       PRES   REMARKS
COLUMBUS AFB   CLOUDY    63  60  89 SE9       29.98F                  
GOLDN TRIANGLE CLOUDY    63  55  77 S8        29.96F                  
STARKVILLE     FAIR      64  59  82 S13       30.00F                  
TUPELO         CLOUDY    63  58  83 SE15G22   29.95F                  
$$

MSZ040-058-252200-
CENTRAL MISSISSIPPI
  
CITY           SKY/WX    TMP DP  RH WIND       PRES   REMARKS
JACKSON INTL   CLOUDY    75  61  61 S18       29.92F THUNDER          
JACKSON HAWKNS CLOUDY    75  60  59 S14G23    29.92F                  
MADISON        MOCLDY    70  61  73 S7        29.92F                  
MERIDIAN KEY   LGT RAIN  63  60  90 S12       30.02F                  
MERIDIAN NAS   CLOUDY    62  57  83 S7        30.03S                  
$$

MSZ059>079-252200-
SOUTH MISSISSIPPI
  
CITY           SKY/WX    TMP DP  RH WIND       PRES   REMARKS
BROOKHAVEN     FAIR      75  57  53 S15       29.97F                  
HATTIESBURG    CLOUDY    64  60  87 SE6       30.02F                  
MCCOMB         MOSUNNY   67  57  70 S10       29.98F                  
NATCHEZ        MOSUNNY   75  57  53 S8        29.93F                  
PINE BELT      CLOUDY    63  59  88 SE7       30.01F                  
$$

MSZ080>082-252200-
COASTAL MISSISSIPPI
  
CITY           SKY/WX    TMP DP  RH WIND       PRES   REMARKS
BAY ST LOUIS   PTSUNNY   61  57  88 CALM      30.04F                  
BILOXI         LGT RAIN  63  61  94 NW6       30.05R FOG              
PASCAGOULA     TSTM      72  67  84 MISG      30.02F                  
GULFPORT       TSTM      63  61  93 NW8       30.06S FOG              
$$

LAZ007>009-015>016-023>026-252200-
NORTHEAST LOUISIANA
  
CITY           SKY/WX    TMP DP  RH WIND       PRES   REMARKS
BASTROP        FAIR      78  51  39 W12       29.90F                  
TALLULAH/VBURG CLOUDY    76  60  57 VRB7G20   29.90F                  
$$
  

Return to Home page


Western Regional Climate Center, wrcc@dri.edu